Location: Bothwell
(42.3833°S, 147.0000°E)
Time: 22:51:36
(UTC+10:00)

CUTE 1.7 + AOD 2 - Pass Details

Date: 05 February 2023
Orbit: 584 x 601 km, 97.7° (Epoch: 02 April)

Event Time Altitude Azimuth Distance (km) Brightness Sun altitude
Exits shadow 05:05:24 18° 286° (WNW) 1,483 ? -12.8°
Maximum altitude 05:06:07 19° 273° (W) 1,453 ? -12.7°
Drops below altitude 10° 05:09:07 10° 227° (SW) 1,945 ? -12.2°
Sets 05:11:52 0° 209° (SSW) 2,860 ? -11.8°
